STARLINK-35885

Last updated on Fri Dec 19 2025 00:02:08 GMT+0000 (Coordinated Universal Time)

1 66890U 25283N 25352.58336806 -.01372441 00000+0 -86735-2 0 9999 2 66890 53.1553 44.3922 0001084 59.9657 85.5676 15.78547021 3360
UTC large
Height (km)
Speed (km/s)
/
Latitude / Longitude
Inclination (degrees)
Orbital Period (minutes)
Azimuth
Elevation
Range (km)
Doppler Factor

Next 0 passes for location: London (51.5072 / 0.1276)

Sorry there are no passes over London.